EW7806 Weather Reports


Display with metric or nautical units.
time (UTC)temp
F
wind
direction
speed
MPH
gust
MPH
rain 1hr
in
rain 24hr
in
rain mn
in
humidity
%
barometer
mb
20260905190714 60 82 0.0 2.0 0.00 0.00 0.00 73 1024.9
20260905190211 60 84 0.0 1.0 0.00 0.00 0.00 72 1025.0
20260905185711 60 83 0.0 2.0 0.00 0.00 0.00 72 1024.9
20260905184708 60 345 0.0 0.0 0.00 0.00 0.00 72 1024.9
20260905184139 61 80 0.0 3.0 0.00 0.00 0.00 71 1024.8
20260905183634 61 100 0.0 3.0 0.00 0.00 0.00 71 1024.7
20260905183134 61 71 0.0 2.0 0.00 0.00 0.00 71 1024.7
20260905182111 61 96 0.0 1.0 0.00 0.00 0.00 72 1024.6
20260905181612 61 97 0.0 2.0 0.00 0.00 0.00 71 1024.5
20260905181110 61 117 0.0 2.0 0.00 0.00 0.00 71 1024.6
20260905180112 62 33 1.0 6.0 0.00 0.00 0.00 69 1024.5
20260905175610 62 326 1.0 6.0 0.00 0.00 0.00 68 1024.5
20260905175109 62 13 1.0 6.0 0.00 0.00 0.00 67 1024.4
20260905174606 62 117 1.0 10.0 0.00 0.00 0.00 66 1024.4
20260905174106 62 328 0.0 10.0 0.00 0.00 0.00 66 1024.4
20260905173537 63 316 0.0 9.0 0.00 0.00 0.00 68 1024.3
20260905173035 63 11 0.0 4.0 0.00 0.00 0.00 67 1024.3
20260905172537 63 77 1.0 10.0 0.00 0.00 0.00 67 1024.3
20260905172036 64 80 1.0 10.0 0.00 0.00 0.00 66 1024.3
20260905171518 64 53 1.0 12.0 0.00 0.00 0.00 67 1024.3
20260905170456 65 20 1.0 0.0 0.00 0.00 0.00 69 1024.1
20260905165935 65 20 1.0 11.0 0.00 0.00 0.00 68 1024.1
20260905165435 65 40 1.0 11.0 0.00 0.00 0.00 69 1024.2
20260905164409 65 121 2.0 14.0 0.00 0.00 0.00 69 1024.0
20260905163909 64 56 1.0 14.0 0.00 0.00 0.00 70 1023.9
20260905163412 64 63 1.0 13.0 0.00 0.00 0.00 71 1023.9
20260905162908 64 44 1.0 9.0 0.00 0.00 0.00 73 1023.9
20260905162413 64 315 2.0 13.0 0.00 0.00 0.00 71 1023.8
20260905161911 63 357 2.0 13.0 0.00 0.00 0.00 71 1023.7
20260905161402 63 80 1.0 13.0 0.00 0.00 0.00 71 1023.6
20260905160840 63 63 1.0 13.0 0.00 0.00 0.00 73 1023.5
20260905155839 63 146 1.0 13.0 0.00 0.00 0.00 73 1023.4
20260905155313 64 96 1.0 13.0 0.00 0.00 0.00 73 1023.4
20260905154817 64 158 0.0 7.0 0.00 0.00 0.00 71 1023.1
20260905154308 64 95 0.0 11.0 0.00 0.00 0.00 72 1023.2
20260905153809 64 311 1.0 11.0 0.00 0.00 0.00 71 1023.2
20260905152737 65 298 3.0 17.0 0.00 0.00 0.00 70 1023.0
20260905152233 65 24 2.0 17.0 0.00 0.00 0.00 69 1023.1
20260905151734 66 63 1.0 14.0 0.00 0.00 0.00 67 1022.9
20260905150714 66 294 1.0 12.0 0.00 0.00 0.00 67 1022.9
20260905150211 67 23 1.0 1.0 0.00 0.00 0.00 62 1023.0
20260905145712 67 8 1.0 14.0 0.00 0.00 0.00 64 1022.9
20260905145209 67 356 1.0 14.0 0.00 0.00 0.00 60 1022.9
20260905144709 67 63 2.0 8.0 0.00 0.00 0.00 65 1022.8
20260905144212 66 58 3.0 18.0 0.00 0.00 0.00 67 1022.7
20260905143709 65 94 3.0 18.0 0.00 0.00 0.00 69 1022.7
20260905142722 65 75 3.0 14.0 0.00 0.00 0.00 69 1022.6
20260905142208 65 65 4.0 14.0 0.00 0.00 0.00 68 1022.6
20260905141210 66 45 3.0 17.0 0.00 0.00 0.00 65 1022.4
20260905140710 67 110 3.0 17.0 0.00 0.00 0.00 66 1022.3
20260905135714 67 110 4.0 18.0 0.00 0.00 0.00 67 1022.2
20260905134707 66 8 4.0 14.0 0.00 0.00 0.00 65 1022.1
20260905133634 66 50 2.0 22.0 0.00 0.00 0.00 66 1022.0
20260905133134 66 86 1.0 7.0 0.00 0.00 0.00 70 1022.0
20260905132108 66 132 2.0 17.0 0.00 0.00 0.00 67 1021.9
20260905131609 66 88 3.0 14.0 0.00 0.00 0.00 68 1021.9
20260905131109 65 54 4.0 14.0 0.00 0.00 0.00 66 1021.8
20260905130609 65 73 3.0 13.0 0.00 0.00 0.00 66 1021.7
20260905130114 66 65 3.0 21.0 0.00 0.00 0.00 66 1021.8
20260905124608 67 25 4.0 16.0 0.00 0.00 0.00 65 1021.6
20260905124058 68 91 3.0 16.0 0.00 0.00 0.00 65 1021.6
20260905123536 67 101 2.0 12.0 0.00 0.00 0.00 68 1021.4
20260905123035 67 53 2.0 12.0 0.00 0.00 0.00 68 1021.4
20260905122535 67 87 3.0 18.0 0.00 0.00 0.00 71 1021.5
20260905122035 67 78 3.0 18.0 0.00 0.00 0.00 67 1021.2
20260905121041 67 334 5.0 18.0 0.00 0.00 0.00 68 1021.3
20260905120552 66 35 4.0 15.0 0.00 0.00 0.00 70 1021.1
20260905120038 66 35 4.0 16.0 0.00 0.00 0.00 69 1021.0
20260905115518 67 41 3.0 16.0 0.00 0.00 0.00 69 1021.0
20260905115023 66 57 3.0 7.0 0.00 0.01 0.00 73 1020.9
20260905114522 65 70 3.0 14.0 0.00 0.01 0.00 73 1020.9
20260905114029 65 108 3.0 14.0 0.00 0.01 0.00 70 1021.0
20260905113004 65 354 4.0 18.0 0.00 0.02 0.00 72 1020.7
20260905112452 65 111 4.0 16.0 0.00 0.02 0.00 72 1020.7
20260905111941 65 239 4.0 20.0 0.00 0.03 0.00 74 1020.5
20260905111432 65 314 4.0 20.0 0.00 0.03 0.00 74 1020.5
20260905110932 65 111 5.0 19.0 0.00 0.04 0.00 73 1020.5
20260905110433 67 158 3.0 19.0 0.00 0.05 0.00 69 1020.3
20260905105906 67 60 4.0 19.0 0.00 0.05 0.00 68 1020.3
20260905105404 67 18 5.0 19.0 0.00 0.06 0.00 69 1020.2
20260905103807 66 1 4.0 23.0 0.00 0.08 0.00 67 1020.1
20260905103233 65 74 2.0 12.0 0.00 0.09 0.00 70 1020.0
20260905102730 65 122 2.0 17.0 0.00 0.09 0.00 71 1020.0
20260905102211 65 126 3.0 17.0 0.00 0.10 0.00 71 1019.9
20260905101711 65 47 4.0 16.0 0.00 0.11 0.00 70 1019.9
20260905100712 65 300 4.0 17.0 0.00 0.13 0.00 71 1019.7
20260905100208 65 79 3.0 11.0 0.00 0.17 0.00 70 1019.6
20260905094707 65 86 5.0 11.0 0.00 0.20 0.00 71 1019.4
20260905094159 65 31 5.0 17.0 0.00 0.20 0.00 72 1019.4
20260905093639 65 98 5.0 12.0 0.00 0.20 0.00 72 1019.2
20260905092612 64 255 4.0 16.0 0.00 0.20 0.00 72 1019.1
20260905092110 64 44 3.0 18.0 0.00 0.20 0.00 74 1019.0
20260905091608 64 328 3.0 18.0 0.00 0.20 0.00 73 1019.0
20260905091059 64 170 3.0 17.0 0.00 0.20 0.00 74 1018.9
20260905090535 64 104 4.0 15.0 0.00 0.20 0.00 73 1018.7
20260905090100 64 81 4.0 15.0 0.00 0.20 0.00 74 1018.7
20260905085540 63 11 4.0 8.0 0.00 0.20 0.00 74 1018.7
20260905085035 64 69 4.0 19.0 0.00 0.20 0.00 73 1018.7
20260905084524 64 61 4.0 11.0 0.00 0.20 0.00 75 1018.5
20260905084032 64 83 4.0 17.0 0.00 0.20 0.00 75 1018.4
20260905083520 65 84 4.0 17.0 0.00 0.20 0.00 71 1018.3
20260905083035 65 285 4.0 20.0 0.00 0.20 0.00 71 1018.2
20260905082521 65 23 4.0 20.0 0.00 0.20 0.00 72 1018.2
20260905081019 64 56 3.0 16.0 0.00 0.20 0.00 72 1018.0
20260905080518 64 339 3.0 16.0 0.00 0.20 0.00 70 1017.9
20260905080009 63 82 4.0 17.0 0.00 0.20 0.00 71 1017.9
20260905074933 64 92 3.0 16.0 0.00 0.20 0.00 75 1017.7
20260905074434 64 356 2.0 15.0 0.00 0.20 0.00 76 1017.6
20260905073908 64 286 3.0 15.0 0.00 0.20 0.00 76 1017.5
20260905072909 64 248 3.0 19.0 0.00 0.20 0.00 75 1017.3
20260905072407 64 39 3.0 17.0 0.00 0.20 0.00 76 1017.3
20260905071910 64 285 4.0 17.0 0.00 0.20 0.00 76 1017.1
20260905071407 64 97 5.0 17.0 0.00 0.20 0.00 76 1017.1
20260905070913 64 70 3.0 16.0 0.00 0.20 0.00 77 1017.0
20260905070412 63 15 3.0 16.0 0.00 0.20 0.00 77 1017.0
20260905065842 63 71 4.0 16.0 0.00 0.20 0.00 77 1017.1
20260905064834 63 292 3.0 22.0 0.00 0.20 0.00 79 1016.9
20260905064310 63 85 3.0 15.0 0.00 0.20 0.00 79 1016.8
20260905063820 63 75 4.0 15.0 0.00 0.20 0.00 78 1016.8
20260905062809 63 300 3.0 16.0 0.00 0.20 0.00 79 1016.6
20260905062310 63 11 3.0 13.0 0.00 0.20 0.00 80 1016.7
20260905061813 63 339 3.0 13.0 0.00 0.20 0.00 79 1016.5
20260905061307 63 70 3.0 13.0 0.00 0.20 0.00 79 1016.6
20260905060810 63 338 3.0 12.0 0.00 0.20 0.00 80 1016.5
20260905060322 63 318 3.0 10.0 0.00 0.20 0.00 81 1016.3
20260905055807 63 14 3.0 15.0 0.00 0.20 0.00 81 1016.4
20260905054808 63 108 3.0 14.0 0.00 0.20 0.00 80 1016.2
20260905054306 63 49 2.0 13.0 0.00 0.20 0.00 81 1016.2
20260905053806 63 121 2.0 12.0 0.00 0.20 0.00 81 1016.2
20260905053307 62 103 1.0 6.0 0.00 0.20 0.00 82 1016.0
20260905052735 62 84 1.0 13.0 0.00 0.20 0.00 82 1016.0
20260905052205 62 286 2.0 13.0 0.00 0.20 0.00 82 1016.0
20260905051707 62 94 1.0 12.0 0.00 0.20 0.00 83 1016.0
20260905051134 62 20 1.0 9.0 0.00 0.20 0.00 83 1016.0
20260905050635 62 93 2.0 4.0 0.00 0.20 0.00 83 1015.8
20260905050115 62 70 1.0 10.0 0.00 0.20 0.00 83 1015.8
20260905045605 62 337 1.0 10.0 0.00 0.20 0.00 83 1015.7
20260905045109 62 345 1.0 10.0 0.00 0.20 0.00 82 1015.5
20260905044610 62 317 2.0 10.0 0.00 0.20 0.00 82 1015.6
20260905044107 62 330 2.0 12.0 0.00 0.20 0.00 82 1015.5
20260905043614 62 57 1.0 12.0 0.00 0.20 0.00 82 1015.6
20260905043115 62 120 1.0 12.0 0.00 0.20 0.00 82 1015.6
20260905042548 62 20 1.0 12.0 0.00 0.20 0.00 82 1015.5
20260905042039 62 1 2.0 9.0 0.00 0.20 0.00 82 1015.5
20260905041534 62 276 2.0 11.0 0.00 0.20 0.00 81 1015.5
20260905041034 62 144 2.0 11.0 0.00 0.20 0.00 81 1015.5
20260905040030 62 286 2.0 17.0 0.00 0.20 0.00 81 1015.5
20260905035528 62 108 2.0 17.0 0.00 0.20 0.00 81 1015.5
20260905035023 62 91 2.0 15.0 0.00 0.20 0.00 81 1015.5
20260905034523 62 184 2.0 15.0 0.00 0.20 0.00 81 1015.4
20260905034024 62 62 1.0 12.0 0.00 0.20 0.00 81 1015.3
20260905032935 63 334 2.0 16.0 0.00 0.20 0.00 80 1015.3
20260905032435 63 349 3.0 16.0 0.00 0.20 0.00 79 1015.4
20260905031932 63 145 2.0 12.0 0.00 0.20 0.00 80 1015.2
20260905031412 63 307 2.0 14.0 0.00 0.20 0.00 80 1015.3
20260905030910 63 92 2.0 14.0 0.00 0.20 0.00 79 1015.3
20260905030411 63 18 2.0 11.0 0.00 0.20 0.00 79 1015.2
20260905025912 63 84 2.0 11.0 0.00 0.20 0.00 79 1015.1
20260905025412 63 101 2.0 10.0 0.00 0.20 0.00 79 1015.1
20260905024906 63 53 2.0 10.0 0.00 0.20 0.00 78 1015.1
20260905024406 63 96 1.0 15.0 0.00 0.20 0.00 78 1015.1
20260905023333 63 308 1.0 5.0 0.00 0.20 0.00 79 1015.1
20260905022834 63 16 1.0 10.0 0.00 0.20 0.00 79 1015.1
20260905022308 62 321 1.0 10.0 0.00 0.20 0.00 79 1015.1
20260905021814 62 81 0.0 7.0 0.00 0.20 0.00 79 1014.9
20260905021309 62 72 1.0 7.0 0.00 0.20 0.00 79 1015.0
20260905020316 63 351 1.0 10.0 0.00 0.20 0.00 78 1015.0
20260905015750 63 28 2.0 12.0 0.00 0.20 0.00 78 1014.9
20260905015235 63 98 1.0 12.0 0.00 0.20 0.00 77 1014.8
20260905014735 63 127 1.0 7.0 0.00 0.20 0.00 77 1014.9
20260905014211 63 128 1.0 12.0 0.00 0.20 0.00 77 1014.9
20260905013709 63 104 0.0 11.0 0.00 0.20 0.00 78 1014.8
20260905013211 63 87 0.0 7.0 0.00 0.20 0.00 78 1014.8
20260905012710 63 13 1.0 12.0 0.00 0.20 0.00 77 1014.8
20260905012212 63 32 1.0 12.0 0.00 0.20 0.00 77 1014.8
20260905011210 63 271 1.0 15.0 0.00 0.20 0.00 78 1014.7
20260905010706 63 110 1.0 15.0 0.00 0.20 0.00 78 1014.7
20260905010205 63 103 1.0 3.0 0.00 0.20 0.00 78 1014.6
20260905005637 63 234 1.0 10.0 0.00 0.20 0.00 78 1014.7
20260905005134 63 103 1.0 10.0 0.00 0.20 0.00 77 1014.7
20260905004635 63 203 1.0 13.0 0.00 0.20 0.00 77 1014.7
20260905004111 63 44 2.0 13.0 0.00 0.20 0.00 77 1014.7
20260905003611 63 99 3.0 13.0 0.00 0.20 0.00 77 1014.6
20260905003110 64 105 3.0 13.0 0.00 0.20 0.00 75 1014.7
20260905002611 64 127 2.0 11.0 0.00 0.20 0.00 75 1014.7
20260905002107 64 92 2.0 14.0 0.00 0.20 0.00 76 1014.6
20260905001613 64 81 2.0 14.0 0.00 0.20 0.00 76 1014.7
20260905000610 64 96 1.0 13.0 0.00 0.20 0.00 76 1014.6
20260904235607 64 44 2.0 13.0 0.00 0.20 0.00 75 1014.7
20260904234615 64 111 2.0 12.0 0.00 0.20 0.00 76 1014.5
20260904234105 64 82 2.0 11.0 0.00 0.20 0.00 76 1014.6
20260904233614 64 356 2.0 10.0 0.00 0.20 0.00 76 1014.6
20260904233113 64 77 2.0 10.0 0.00 0.20 0.00 75 1014.5
20260904232606 64 347 2.0 12.0 0.00 0.20 0.00 75 1014.5
20260904232106 64 147 3.0 12.0 0.00 0.20 0.00 74 1014.4
20260904230630 64 338 3.0 17.0 0.00 0.20 0.00 73 1014.3
20260904230110 64 126 3.0 14.0 0.00 0.20 0.00 74 1014.3
20260904225609 64 86 3.0 14.0 0.00 0.20 0.00 74 1014.3
20260904225105 64 306 3.0 19.0 0.00 0.20 0.00 74 1014.4
20260904224038 64 347 2.0 14.0 0.00 0.20 0.00 75 1014.2
20260904223533 65 79 2.0 14.0 0.00 0.20 0.00 73 1014.3
20260904223027 65 105 2.0 16.0 0.00 0.20 0.00 73 1014.3
20260904222024 65 25 4.0 19.0 0.00 0.20 0.00 72 1014.2
20260904221520 65 223 3.0 19.0 0.00 0.20 0.00 71 1014.1
20260904221013 65 137 3.0 16.0 0.00 0.20 0.00 72 1014.1
20260904220526 65 122 3.0 14.0 0.00 0.20 0.00 71 1014.1
20260904220004 65 352 3.0 15.0 0.00 0.20 0.00 71 1014.0
20260904215508 65 107 2.0 15.0 0.00 0.20 0.20 70 1014.0
20260904214947 64 44 2.0 12.0 0.00 0.20 0.20 71 1014.1
20260904214433 64 77 3.0 14.0 0.00 0.20 0.20 71 1014.1
20260904213934 64 75 4.0 14.0 0.00 0.20 0.20 71 1014.1
20260904213411 64 87 2.0 16.0 0.00 0.20 0.20 74 1013.9
20260904212905 65 16 2.0 16.0 0.00 0.20 0.20 75 1013.9
20260904212406 65 86 3.0 20.0 0.00 0.20 0.20 76 1013.9
20260904211906 64 319 3.0 20.0 0.00 0.20 0.20 75 1013.8
20260904211333 64 34 3.0 16.0 0.00 0.20 0.20 76 1013.8
20260904210832 64 345 2.0 16.0 0.00 0.20 0.20 76 1013.7
20260904210311 64 94 1.0 13.0 0.00 0.20 0.20 76 1013.7
20260904205809 64 25 2.0 13.0 0.00 0.20 0.20 75 1013.7
20260904205313 64 8 2.0 12.0 0.00 0.20 0.20 75 1013.5
20260904204246 64 98 2.0 12.0 0.00 0.20 0.20 75 1013.5
20260904203733 64 100 2.0 12.0 0.00 0.20 0.20 74 1013.5
20260904203231 64 345 2.0 9.0 0.00 0.20 0.20 76 1013.5
20260904202708 64 77 2.0 14.0 0.00 0.20 0.20 76 1013.5
20260904202209 64 224 2.0 14.0 0.00 0.20 0.20 76 1013.5
20260904201709 64 70 2.0 12.0 0.00 0.20 0.20 75 1013.5
20260904201209 65 72 2.0 11.0 0.00 0.20 0.20 75 1013.4
20260904200709 65 66 3.0 11.0 0.00 0.20 0.20 74 1013.5
20260904195709 65 359 2.0 12.0 0.00 0.20 0.20 75 1013.3
20260904195209 65 325 2.0 12.0 0.00 0.20 0.20 75 1013.3
20260904194705 65 42 1.0 4.0 0.00 0.20 0.20 75 1013.2
20260904193632 65 18 3.0 18.0 0.00 0.20 0.20 76 1013.2
20260904193133 65 85 2.0 12.0 0.00 0.20 0.20 75 1013.0
20260904192619 65 358 2.0 11.0 0.00 0.20 0.20 75 1013.0
20260904192110 64 340 1.0 11.0 0.00 0.20 0.20 75 1012.9
20260904191615 64 293 2.0 8.0 0.00 0.20 0.20 76 1012.9
20260904191114 64 1 2.0 13.0 0.00 0.20 0.20 76 1012.9